Weather History for Natchitoches, LA

Change the Weather History Date:

Sunday, January 12, 2014

  Actual Average Record
Temperature  
Mean Temperature 51 °F -  
Max Temperature 72 °F 54 °F 78 °F (2002)
Min Temperature 30 °F 33 °F 7 °F (1962)
Degree Days  
Heating Degree Days 14    
Growing Degree Days 1 (Base 50)    
Moisture  
Dew Point 35 °F    
Average Humidity 60    
Maximum Humidity 99    
Minimum Humidity 23    
Precipitation  
Precipitation 0.00 in - - ()
Sea Level Pressure  
Sea Level Pressure 30.07 in    
Wind  
Wind Speed 4 mph (South)    
Max Wind Speed 18 mph    
Max Gust Speed 23 mph    
Visibility 10 miles    
Events      
Averages and records for this station are not official NWS values.
T = Trace of Precipitation, MM = Missing Value Source: NWS Daily Summary

Daily Weather History Graph

Daily Weather History Graph

Search for Another Location

Airport:

Trip Planner

Search our weather history database for the weather conditions in past years. The results will help you decide how hot, cold, wet, or windy it might be!

Date:

Astronomy

Jan. 12, 2014 Rise Set
Actual Time 7:13 AM CST 5:28 PM CST
Civil Twilight 6:46 AM CST 5:55 PM CST
Nautical Twilight 6:16 AM CST 6:25 PM CST
Astronomical Twilight 5:47 AM CST 6:54 PM CST
Moon 2:55 PM CST (1/12) 4:13 AM CST (1/12)
Length of Visible Light 11h 08m
Length of Day
10h 15m
Waxing Gibbous, 90% of the Moon is Illuminated
Jan 12
Waxing Gibbous
Jan 15
Full
Jan 23
Last Quarter
Jan 30
New
Feb 6
First Quarter

Hourly Weather History & Observations

Time (CST) Temp. Dew Point Humidity Pressure Visibility Wind Dir Wind Speed Gust Speed Precip Events Conditions
12:15 AM 36.5 °F 33.8 °F 90% 30.11 in 10.0 mi Calm Calm - N/A   Clear
12:35 AM 36.1 °F 33.8 °F 91% 30.11 in 10.0 mi Calm Calm - N/A   Clear
12:55 AM 36.0 °F 33.8 °F 92% 30.11 in 10.0 mi Calm Calm - N/A   Clear
1:15 AM 34.9 °F 32.9 °F 92% 30.11 in 10.0 mi Calm Calm - N/A   Clear
1:35 AM 34.7 °F 32.0 °F 90% 30.12 in 10.0 mi Calm Calm - N/A   Clear
1:55 AM 34.0 °F 32.9 °F 96% 30.12 in 10.0 mi Calm Calm - N/A   Clear
2:15 AM 34.3 °F 32.9 °F 94% 30.12 in 10.0 mi Calm Calm - N/A   Clear
2:35 AM 34.2 °F 32.9 °F 95% 30.12 in 10.0 mi Calm Calm - N/A   Clear
2:55 AM 33.8 °F 32.4 °F 94% 30.12 in 10.0 mi Calm Calm - N/A   Clear
3:15 AM 33.8 °F 32.7 °F 96% 30.12 in 10.0 mi Calm Calm - N/A   Clear
3:35 AM 33.3 °F 32.4 °F 96% 30.12 in 10.0 mi Calm Calm - N/A   Clear
3:55 AM 32.9 °F 32.2 °F 97% 30.11 in 10.0 mi Calm Calm - N/A   Clear
4:15 AM 32.9 °F 32.0 °F 96% 30.11 in 10.0 mi Calm Calm - N/A   Clear
4:35 AM 32.2 °F 32.0 °F 99% 30.11 in 10.0 mi Calm Calm - N/A   Clear
4:55 AM 32.0 °F 31.8 °F 99% 30.12 in 10.0 mi Calm Calm - N/A   Clear
5:15 AM 31.8 °F 31.1 °F 97% 30.12 in 10.0 mi Calm Calm - N/A   Clear
5:35 AM 31.5 °F 30.7 °F 97% 30.12 in 10.0 mi Calm Calm - N/A   Clear
5:55 AM 31.3 °F 30.9 °F 99% 30.12 in 10.0 mi Calm Calm - N/A   Clear
6:15 AM 31.1 °F 30.7 °F 99% 30.13 in 10.0 mi Calm Calm - N/A   Clear
6:35 AM 31.1 °F 30.2 °F 96% 30.13 in 10.0 mi Calm Calm - N/A   Clear
6:55 AM 31.1 °F 30.6 °F 98% 30.12 in 10.0 mi Calm Calm - N/A   Clear
7:15 AM 30.7 °F 30.2 °F 98% 30.13 in 10.0 mi Calm Calm - N/A   Clear
7:35 AM 30.9 °F 30.2 °F 97% 30.13 in 10.0 mi Calm Calm - N/A   Clear
7:55 AM 32.9 °F 31.6 °F 95% 30.14 in 10.0 mi Calm Calm - N/A   Clear
8:15 AM 35.8 °F 33.4 °F 91% 30.14 in 10.0 mi Calm Calm - N/A   Clear
8:35 AM 39.6 °F 35.8 °F 86% 30.15 in 10.0 mi Calm Calm - N/A   Clear
8:55 AM 41.9 °F 36.5 °F 81% 30.15 in 10.0 mi Calm Calm - N/A   Clear
9:15 AM 45.9 °F 39.0 °F 77% 30.15 in 10.0 mi Calm Calm - N/A   Clear
9:35 AM 49.8 °F 39.9 °F 69% 30.16 in 10.0 mi Calm Calm - N/A   Clear
9:55 AM 53.2 °F 40.1 °F 61% 30.16 in 10.0 mi Calm Calm - N/A   Clear
10:15 AM 56.8 °F 40.5 °F 54% 30.16 in 10.0 mi Calm Calm - N/A   Clear
10:35 AM 59.0 °F 39.0 °F 48% 30.15 in 10.0 mi SE 5.8 mph - N/A   Clear
10:55 AM 62.8 °F 38.3 °F 40% 30.14 in 10.0 mi SSE 8.1 mph - N/A   Clear
11:15 AM 66.0 °F 37.2 °F 35% 30.13 in 10.0 mi South 8.1 mph - N/A   Clear
11:35 AM 67.5 °F 32.9 °F 28% 30.11 in 10.0 mi South 12.7 mph - N/A   Clear
11:55 AM 68.9 °F 34.7 °F 28% 30.09 in 10.0 mi South 6.9 mph - N/A   Clear
12:15 PM 69.4 °F 32.9 °F 26% 30.09 in 10.0 mi SSW 11.5 mph 16.1 mph N/A   Clear
12:35 PM 70.3 °F 34.0 °F 26% 30.07 in 10.0 mi South 9.2 mph - N/A   Clear
12:55 PM 70.3 °F 31.8 °F 24% 30.06 in 10.0 mi South 13.8 mph - N/A   Clear
1:15 PM 70.7 °F 31.8 °F 24% 30.05 in 10.0 mi South 8.1 mph 11.5 mph N/A   Clear
1:35 PM 71.1 °F 33.1 °F 25% 30.04 in 10.0 mi SSW 11.5 mph - N/A   Clear
1:55 PM 72.0 °F 32.4 °F 23% 30.03 in 10.0 mi South 12.7 mph - N/A   Clear
2:15 PM 71.8 °F 32.2 °F 23% 30.02 in 10.0 mi South 12.7 mph - N/A   Clear
2:35 PM 71.8 °F 32.9 °F 24% 30.01 in 10.0 mi South 11.5 mph - N/A   Clear
2:55 PM 71.8 °F 33.1 °F 24% 30.01 in 10.0 mi South 10.4 mph - N/A   Clear
3:15 PM 70.9 °F 33.4 °F 25% 30.01 in 10.0 mi South 13.8 mph - N/A   Clear
3:35 PM 71.1 °F 35.1 °F 27% 30.01 in 10.0 mi South 10.4 mph - N/A   Clear
3:55 PM 71.2 °F 36.3 °F 28% 30.01 in 10.0 mi South 10.4 mph 16.1 mph N/A   Clear
4:15 PM 69.3 °F 35.2 °F 29% 30.02 in 10.0 mi South 12.7 mph - N/A   Clear
4:35 PM 68.9 °F 36.1 °F 30% 30.02 in 10.0 mi South 8.1 mph - N/A   Clear
4:55 PM 67.6 °F 35.6 °F 31% 30.02 in 10.0 mi South 8.1 mph - N/A   Clear
5:15 PM 66.2 °F 35.4 °F 32% 30.03 in 10.0 mi South 8.1 mph - N/A   Clear
5:35 PM 65.5 °F 35.2 °F 33% 30.03 in 10.0 mi SSW 11.5 mph - N/A   Clear
5:55 PM 65.3 °F 33.6 °F 31% 30.03 in 10.0 mi South 11.5 mph - N/A   Clear
6:15 PM 64.9 °F 32.7 °F 30% 30.02 in 10.0 mi South 18.4 mph 21.9 mph N/A   Clear
6:35 PM 63.5 °F 32.9 °F 32% 30.02 in 10.0 mi South 12.7 mph 17.3 mph N/A   Clear
6:55 PM 63.0 °F 34.0 °F 34% 30.02 in 10.0 mi South 11.5 mph 19.6 mph N/A   Clear
7:15 PM 62.4 °F 34.9 °F 36% 30.01 in 10.0 mi South 11.5 mph - N/A   Clear
7:35 PM 61.5 °F 35.8 °F 38% 30.02 in 10.0 mi South 10.4 mph 18.4 mph N/A   Clear
7:55 PM 60.6 °F 35.1 °F 38% 30.02 in 10.0 mi South 9.2 mph - N/A   Clear
8:15 PM 60.4 °F 36.1 °F 40% 30.02 in 10.0 mi South 8.1 mph - N/A   Clear
8:35 PM 60.8 °F 37.6 °F 42% 30.01 in 10.0 mi South 9.2 mph - N/A   Clear
8:55 PM 60.1 °F 38.8 °F 45% 29.99 in 10.0 mi SSE 9.2 mph - N/A   Scattered Clouds
9:15 PM 59.0 °F 40.1 °F 50% 29.98 in 10.0 mi SSE 9.2 mph - N/A   Mostly Cloudy
9:35 PM 59.9 °F 39.7 °F 47% 29.97 in 10.0 mi SSE 10.4 mph - N/A   Scattered Clouds
9:55 PM 59.4 °F 40.6 °F 50% 29.99 in 10.0 mi South 9.2 mph - N/A   Scattered Clouds
10:15 PM 60.6 °F 41.7 °F 50% 30.00 in 10.0 mi South 10.4 mph 18.4 mph N/A   Scattered Clouds
10:35 PM 60.8 °F 43.5 °F 53% 30.01 in 10.0 mi South 13.8 mph 19.6 mph N/A   Clear
10:55 PM 60.4 °F 44.8 °F 56% 30.00 in 10.0 mi South 13.8 mph 23.0 mph N/A   Clear
11:15 PM 60.4 °F 45.5 °F 58% 29.98 in 10.0 mi South 9.2 mph 18.4 mph N/A   Scattered Clouds
11:35 PM 60.3 °F 46.4 °F 60% 29.98 in 10.0 mi South 8.1 mph 16.1 mph N/A   Mostly Cloudy
11:55 PM 60.3 °F 46.8 °F 61% 29.98 in 10.0 mi South 11.5 mph - N/A   Overcast